Location: ??
(35.5052°N, 139.7262°E)
Time: 08:24:34
(UTC+00:00)

N. Korean satellite - Pass Details

Date: 06 October 2021
Orbit: 450 x 495 km, 97.3° (Epoch: 15 October)

Event Time Altitude Azimuth Distance (km) Brightness Sun altitude
Rises 18:48:18 0° 38° (NE) 2,570 11.0 -23.6°
Reaches altitude 10° 18:51:55 10° 77° (ENE) 1,689 10.4 -22.8°
Maximum altitude 18:52:54 11° 92° (E) 1,635 10.3 -22.7°
Drops below altitude 10° 18:53:52 10° 108° (ESE) 1,688 10.2 -22.5°
Sets 18:57:28 0° 146° (SSE) 2,567 10.6 -21.7°
